PSLV R/B, 41791

Orbit data source: Space-Track

PSLV R/B, 41791 is space debris in SSO originally from a launch on Mon, 26 Sep 2016 UTC launched from the Sirharikota (SRI). Debris objects in space refer to the collection of defunct objects orbiting the Earth. Examples of debris include non-operational satellites, rocket bodies, and fragments generated from explosions, collisions, or faulty payload assembly.

Loading next visibility...
Identifier
41791, 2016-059J
Orbit
SSO
Country
Flag of ININ / IND
Related business
Manufacturer
VSSC/LPSC
Mission
Spacecraft
Bus & Motor
PS-4, Unknown motor
Mass
920 kg wet, 920 kg dry
Launch date (UTC)
2016-09-26 (9 years ago)
Launch vehicle
Unknown
Launch site
Sirharikota (SRI)
Object type
Payload
Rocket body
Debris
Shape & HBR
Cyl + Cyl + 2 Nozzle, 1.6 m
Radar Cross Section
3.727 m², Large (>1 m²)

Expand to show TLE details & history
Last TLE update: 17 hours ago

TLE from 17 hours ago
0 PSLV R/B
1 41791U 16059J   25310.04210732  .00000665  00000-0  13616-3 0  9990
2 41791  97.8461 327.1103 0039420 272.1660  87.5030 14.63375953486038
Epoch: 2025-11-06T01:00Z
TLE epoch observation values (Epoch: 2025-11-06T01:00:38.072Z)
Latitude
0.00005°
Longitude
-93.55445°
Altitude
684.191 km
Speed
7.515 km/s
True Right ascension
21h 48m 26s
True Declination
0° 00' 00"
Sunlit
Object was in daylight at epoch
Visualization orbit readout
Latitude
Unknown
Longitude
Unknown
Altitude
Unknown
Speed
Unknown
Apparent Right ascension
Unknown
Apparent Declination
Unknown
Sunlit
N/A
Visualization observer readout
Local Sidereal Time
14:06:24
Azimuth
Unknown
Elevation
Unknown
Doppler factor
Unknown
Orbital elements
Apogee altitude
707.176 km
Perigee altitude
651.534 km
Semi-major axis
7,057.492 km
Eccentricity
0.00394
Inclination
97.8461°
RAAN
327.1103°
Arg. of periapsis
272.166°
True anomaly
87.95438°
Mean anomaly
87.503°
Eccentric anomaly
87.72868°
Mean motion
3.66073 °/min
Orbital period
98.34 mins
BSTAR
0.00013616
Loading maneuver chart data...
Computing Atmospheric mass density...
Loading historical data...
Loading historical data...
Loading historical data...
Loading historical data...
Loading historical data...
Loading historical data...
Loading historical data...

Documentation

Showing up to 5 results
|